Tracking 19176 objects as of 26-May-2018
HD Live streaming from Space Station
objects crossing your sky now

DELTA 1 R/B

Track DELTA 1 R/B now!
10-day predictions


NORAD ID: 4251
Int'l Code: 1969-101B
Perigee: 339.8 km
Apogee: 17,723.9 km
Inclination: 27.7 °
Period: 317.1 minutes
Semi major axis: 15402 km
RCS: 1.8664 m2 (large)
Launch date: November 22, 1969
Source: United States (US)
Launch site: AIR FORCE EASTERN TEST RANGE (AFETR)

Note: This is a ROCKET BODY
aabbcc
Your satellite tracking list
Your tracking list is empty




NASA's NSSDC Master Catalog

Two Line Element Set (TLE):
1 04251U 69101B   18145.45881077  .00000616  00000-0  24096-3 0  9995
2 04251  27.6759  92.7301 5643131  96.8510 326.9366  4.54150537544073
Source of the keplerian elements: AFSPC